Temp
62 62 63 63 63 64 64 64 64 64 64 64 65 64 64 65 65 66 67 74 73 71 69 72 69 69 67 64 65 62 49 46 53 54 57 62 60 60 61 59 58 64 59 59 60
61 61 62 62 62 63 63 64 63 63 63 64 64 64 64 64 66 67 75 72 72 71 73 69 66 67 60 61 61 55 46 53 59 58 57 60 60 61 57 57 57 58 56 58 60
60 60 60 61 62 62 63 63 63 63 63 63 63 63 63 62 63 68 71 71 71 71 72 72 70 68 59 60 59 57 52 59 62 61 62 60 57 62 59 55 59 60 58 56 55
60 60 60 60 61 62 62 62 62 62 63 63 63 63 62 64 57 69 70 71 71 71 70 69 66 61 57 57 63 55 62 63 63 63 60 57 61 59 59 62 65 64 62 57 56
61 60 60 60 60 61 61 62 62 62 62 62 63 62 62 59 64 69 68 69 70 70 69 67 63 61 56 59 60 57 58 63 63 62 61 60 59 57 58 61 64 64 60 57 57
61 61 60 60 60 61 61 61 62 62 61 62 63 62 60 56 70 70 69 67 70 68 67 67 65 65 60 59 56 57 58 59 60 62 60 58 54 56 59 61 63 62 60 56 58
61 60 60 60 60 60 61 61 61 61 61 62 63 64 61 64 71 69 70 67 67 68 64 67 65 62 59 57 59 58 55 56 58 59 57 57 53 53 64 60 60 60 60 58 57
60 60 59 59 60 60 61 61 61 61 61 62 64 60 59 68 66 70 69 66 67 67 66 65 66 62 58 60 57 51 48 45 55 56 56 59 50 60 61 57 58 59 57 57 59
60 59 59 60 60 60 60 61 60 61 63 64 58 57 59 68 66 70 69 66 66 66 64 71 64 58 55 50 46 46 42 44 51 58 54 52 49 57 60 56 57 55 58 59 58
60 59 59 60 60 60 60 61 61 62 63 66 68 55 62 62 64 67 67 67 62 61 60 58 55 50 47 45 40 41 41 46 47 52 49 47 50 58 57 55 57 56 54 56 61
60 60 60 60 60 61 58 54 59 57 57 59 59 59 62 62 65 62 64 63 62 57 50 53 46 45 53 51 53 48 46 44 55 58 52 52 54 57 59 55 53 60 61 59 63
60 60 60 60 60 60 55 55 49 51 47 59 60 62 66 64 59 60 66 58 55 49 51 48 44 54 55 53 51 49 47 45 53 56 50 50 51 58 54 58 60 60 58 61 62
60 59 59 59 59 57 53 51 57 54 43 54 59 61 62 63 58 58 62 56 51 48 49 50 51 56 54 52 49 51 47 49 49 52 48 46 44 48 53 57 59 62 63 64 63
59 59 59 59 56 55 52 56 56 53 38 48 54 57 58 59 54 58 62 59 51 50 48 48 56 55 49 49 52 47 52 50 47 41 41 44 40 46 51 52 54 59 59 61 57
59 59 59 60 52 51 56 57 54 51 27 51 52 60 56 55 52 52 55 53 48 48 49 49 48 47 48 53 52 52 51 48 43 39 36 39 36 42 51 48 53 58 60 62 59
58 58 58 57 53 56 57 55 52 41 29 48 51 48 48 49 49 51 51 54 51 47 48 48 49 50 50 47 50 48 44 42 39 36 32 38 40 42 43 51 52 59 62 62 61
58 57 57 62 56 58 58 55 42 35 50 47 47 48 46 45 46 46 44 42 42 37 37 44 48 51 50 45 44 44 40 30 27 24 32 43 36 49 51 52 55 58 60 61 55
57 57 55 59 59 58 55 44 32 43 47 52 50 47 46 48 47 45 42 38 42 41 38 38 41 45 48 51 44 39 45 30 23 28 39 34 31 42 54 59 57 59 61 56 52
56 55 53 56 56 55 46 34 42 46 50 50 49 44 43 47 48 43 39 39 45 46 41 39 39 43 44 45 50 40 36 46 34 18 23 41 43 51 49 52 52 54 51 51 50
53 53 52 55 56 50 40 41 45 50 51 49 42 47 40 42 45 44 41 45 46 49 56 48 40 47 42 42 42 42 44 33 32 23 20 38 39 45 50 55 57 51 50 50 49
51 48 52 55 55 44 35 38 43 51 52 48 47 43 43 42 46 45 44 47 51 51 51 47 43 45 40 38 40 37 37 39 39 34 34 32 40 47 48 49 51 51 51 49 49
49 42 52 55 42 42 40 44 48 47 50 49 48 48 46 47 45 44 44 48 54 52 43 43 39 32 39 46 45 46 45 46 37 35 33 36 39 60 56 50 52 52 52 51 51
44 45 51 51 39 40 42 43 46 46 47 47 45 48 49 43 39 43 44 53 54 51 44 42 32 28 30 42 40 40 43 45 44 37 34 29 34 58 57 52 49 51 51 51 52
41 37 43 44 46 43 42 42 41 47 45 47 47 47 44 41 44 40 41 45 47 47 47 47 34 33 30 39 44 39 40 40 42 35 36 35 38 46 51 54 57 59 61 64 57
38 35 40 34 39 41 42 41 39 37 45 46 43 43 42 38 40 39 42 44 46 45 44 42 32 34 36 40 42 40 39 42 38 40 34 36 37 43 49 51 54 58 60 55 55
34 32 38 33 38 38 37 38 38 39 40 39 38 36 35 34 37 35 40 42 41 38 41 40 34 36 32 35 35 33 38 39 38 39 39 40 40 51 53 54 53 54 56 55 56
38 40 37 33 31 30 31 36 37 38 38 38 36 33 32 36 40 38 37 36 36 36 37 38 33 32 29 35 33 28 34 36 38 41 42 35 42 50 50 51 51 52 55 54 56
MSLP
1020.55 1020.43 1020.13 1019.83 1019.55 1019.17 1018.82 1018.51 1018.23 1017.96 1017.73 1017.39 1017.01 1016.76 1016.48 1016.21 1016.13 1016.10 1015.28 1013.75 1013.83 1014.15 1014.61 1014.79 1015.02 1015.00 1015.09 1015.36 1015.24 1015.46 1016.10 1015.58 1014.37 1013.10 1012.34 1012.07 1012.26 1012.43 1012.72 1013.15 1013.47 1013.68 1014.19 1014.56 1015.18
1020.77 1020.59 1020.39 1020.13 1019.76 1019.41 1019.05 1018.71 1018.35 1018.00 1017.69 1017.41 1017.05 1016.69 1016.41 1016.21 1015.93 1015.20 1013.52 1013.30 1013.60 1013.89 1014.30 1014.61 1014.82 1014.98 1015.26 1015.21 1015.33 1015.76 1016.04 1014.76 1013.31 1012.71 1012.34 1012.21 1012.31 1012.60 1012.96 1013.10 1013.47 1013.83 1014.44 1014.92 1015.52
1021.05 1020.84 1020.54 1020.28 1019.95 1019.54 1019.11 1018.71 1018.38 1018.00 1017.57 1017.24 1016.98 1016.61 1016.34 1016.20 1015.89 1013.87 1013.33 1013.38 1013.54 1013.78 1013.97 1014.11 1014.24 1014.66 1015.11 1014.90 1015.05 1015.12 1014.97 1013.92 1012.94 1012.51 1012.40 1012.36 1012.54 1012.53 1012.91 1013.19 1012.89 1013.03 1013.98 1014.94 1015.52
1021.06 1020.90 1020.68 1020.41 1019.99 1019.58 1019.16 1018.67 1018.25 1017.91 1017.56 1017.18 1016.78 1016.46 1016.21 1016.04 1015.29 1013.42 1013.45 1013.58 1013.70 1013.86 1014.11 1014.02 1014.19 1014.55 1014.78 1014.68 1014.17 1014.48 1013.81 1013.53 1012.93 1012.47 1012.45 1012.65 1012.63 1012.50 1012.57 1011.80 1011.77 1012.07 1012.68 1014.04 1014.78
1020.93 1020.80 1020.59 1020.35 1020.00 1019.53 1019.07 1018.61 1018.07 1017.66 1017.34 1017.08 1016.81 1016.46 1016.18 1015.92 1014.19 1013.23 1013.40 1013.62 1013.85 1013.98 1014.05 1014.08 1014.28 1014.37 1014.50 1014.10 1013.95 1013.88 1013.51 1013.20 1012.87 1012.70 1012.58 1012.64 1012.73 1013.02 1012.00 1011.64 1011.82 1011.98 1012.65 1013.42 1013.97
1020.67 1020.55 1020.42 1020.14 1019.78 1019.33 1018.86 1018.37 1017.82 1017.36 1017.02 1016.82 1016.66 1016.55 1016.34 1015.35 1012.89 1012.98 1013.34 1013.71 1013.64 1013.76 1013.70 1013.76 1013.71 1013.78 1014.11 1013.91 1013.97 1013.58 1013.54 1013.16 1012.82 1012.63 1012.68 1012.88 1012.64 1013.07 1010.98 1010.95 1011.30 1011.72 1011.96 1012.35 1012.79
1020.44 1020.24 1019.99 1019.87 1019.50 1019.02 1018.37 1017.81 1017.30 1016.87 1016.67 1016.39 1016.25 1016.31 1015.72 1013.38 1012.50 1012.94 1013.24 1013.34 1013.29 1013.48 1013.65 1013.47 1013.44 1013.65 1013.78 1013.74 1013.46 1013.51 1013.69 1013.13 1012.28 1012.00 1012.55 1012.89 1012.77 1012.00 1009.95 1010.75 1010.93 1011.08 1011.21 1011.47 1011.55
1020.35 1020.13 1019.78 1019.44 1019.12 1018.67 1017.97 1017.16 1016.62 1016.19 1016.02 1015.92 1015.87 1015.96 1014.52 1012.69 1012.66 1012.93 1013.14 1013.16 1013.04 1013.05 1013.34 1013.40 1013.38 1013.89 1013.97 1013.67 1013.72 1014.04 1014.14 1013.58 1011.49 1011.78 1012.32 1012.56 1011.51 1009.62 1009.78 1010.52 1010.55 1010.46 1010.68 1010.69 1010.50
1020.14 1019.93 1019.65 1019.12 1018.71 1018.22 1017.52 1016.55 1015.96 1015.60 1015.47 1015.49 1015.83 1015.75 1014.19 1012.85 1012.84 1012.55 1012.70 1013.04 1013.17 1013.28 1013.27 1013.30 1013.54 1013.97 1014.20 1014.50 1014.88 1014.42 1014.00 1013.29 1012.04 1011.28 1012.00 1012.48 1011.48 1009.70 1009.26 1009.99 1010.01 1009.85 1009.79 1009.84 1009.53
1019.82 1019.75 1019.42 1019.00 1018.47 1017.86 1016.98 1015.70 1015.12 1015.15 1015.15 1015.35 1015.25 1015.56 1013.57 1012.80 1012.55 1012.44 1012.53 1012.79 1013.22 1013.61 1013.98 1014.07 1014.19 1014.30 1014.46 1014.54 1014.47 1013.62 1013.73 1012.78 1012.14 1011.65 1011.72 1011.87 1010.98 1009.34 1009.35 1009.72 1009.39 1009.15 1008.87 1008.71 1008.45
1019.45 1019.38 1019.20 1018.78 1018.32 1017.75 1017.04 1015.79 1015.68 1015.79 1015.18 1014.24 1014.08 1013.48 1012.75 1012.88 1012.66 1012.89 1012.87 1013.24 1013.43 1013.89 1014.17 1014.15 1014.46 1013.91 1012.73 1012.94 1012.70 1013.01 1012.85 1012.50 1011.27 1011.12 1011.38 1010.83 1010.21 1009.34 1008.74 1008.93 1008.80 1008.42 1007.83 1007.64 1006.85
1019.23 1019.08 1018.88 1018.57 1018.03 1017.56 1017.42 1017.47 1018.18 1018.47 1016.41 1013.90 1013.35 1012.74 1011.82 1011.82 1012.53 1012.74 1012.85 1013.56 1013.76 1013.74 1013.93 1014.00 1013.41 1012.67 1012.76 1013.00 1013.08 1013.01 1012.52 1012.04 1011.00 1010.49 1010.90 1010.31 1009.46 1008.76 1008.42 1007.54 1006.99 1006.86 1006.60 1006.16 1005.60
1018.83 1018.98 1018.77 1018.27 1017.82 1017.58 1017.78 1018.23 1018.11 1018.17 1017.47 1014.05 1011.95 1011.42 1011.04 1011.27 1011.40 1011.76 1012.58 1013.03 1013.44 1013.80 1013.39 1012.59 1011.94 1012.03 1012.57 1012.64 1013.03 1012.03 1012.27 1011.46 1011.18 1010.94 1010.42 1010.00 1008.47 1008.01 1006.87 1006.35 1005.99 1005.31 1004.87 1004.75 1004.56
1018.47 1018.56 1018.63 1018.08 1018.11 1017.96 1017.94 1017.77 1017.72 1018.22 1017.11 1013.56 1011.86 1011.17 1011.09 1011.16 1011.74 1011.64 1011.51 1012.19 1012.98 1012.59 1013.22 1012.46 1011.42 1011.61 1011.96 1012.16 1012.09 1010.49 1011.03 1011.28 1011.42 1011.85 1010.94 1010.28 1006.19 1006.55 1006.01 1005.61 1005.11 1004.18 1003.92 1003.21 1003.43
1018.05 1018.16 1018.36 1017.99 1018.38 1018.17 1017.89 1017.60 1017.54 1017.85 1016.35 1012.72 1011.83 1011.55 1011.50 1011.52 1011.82 1012.10 1012.30 1012.26 1012.34 1012.57 1012.90 1011.34 1010.84 1010.91 1011.32 1010.68 1011.34 1009.82 1010.85 1011.05 1011.58 1011.92 1011.45 1010.72 1009.89 1005.54 1005.34 1005.11 1004.21 1003.25 1002.83 1002.40 1002.39
1017.53 1017.61 1018.02 1018.50 1018.40 1017.41 1017.31 1017.54 1017.60 1017.67 1015.41 1012.29 1011.78 1011.81 1012.09 1012.23 1012.17 1012.57 1012.70 1012.68 1012.70 1012.86 1012.17 1011.36 1011.28 1010.90 1010.41 1010.72 1010.77 1010.74 1011.20 1011.65 1012.02 1012.47 1011.05 1010.38 1009.64 1001.63 1004.16 1003.41 1002.91 1002.44 1001.94 1001.71 1001.36
1017.04 1017.15 1017.51 1017.34 1017.60 1017.40 1017.09 1017.57 1017.93 1016.35 1013.71 1012.43 1011.66 1011.89 1012.33 1012.50 1012.71 1012.57 1013.05 1013.22 1013.25 1013.52 1012.44 1010.99 1010.31 1009.82 1010.13 1011.07 1011.39 1011.45 1011.98 1012.79 1013.18 1013.27 1009.62 1008.23 1007.79 1002.22 1002.80 1002.29 1001.61 1001.16 1000.78 1000.53 1000.65
1016.76 1017.10 1017.09 1017.01 1017.22 1017.15 1017.76 1018.13 1016.90 1014.44 1013.06 1011.41 1011.51 1011.53 1011.75 1011.86 1012.05 1012.58 1012.94 1013.11 1012.89 1012.74 1012.49 1011.80 1009.26 1009.49 1008.99 1009.62 1009.66 1010.58 1011.28 1012.44 1012.28 1011.57 1008.68 1007.62 1004.87 1002.51 1001.30 1000.70 1000.39 999.95 999.72 999.76 1000.85
1016.43 1016.74 1017.03 1016.72 1017.05 1017.54 1018.30 1017.32 1013.82 1013.14 1012.47 1011.93 1011.63 1011.22 1011.10 1010.94 1011.30 1012.05 1012.55 1012.03 1011.39 1011.54 1011.71 1010.87 1009.07 1008.47 1008.75 1009.07 1009.40 1010.14 1010.38 1009.56 1010.97 1010.72 1009.95 1005.65 1003.46 1001.54 1000.98 1000.65 1000.30 999.85 999.65 1000.38 1000.37
1016.89 1016.48 1016.01 1015.69 1016.81 1017.66 1017.76 1015.17 1013.33 1012.45 1012.09 1012.04 1011.96 1011.54 1011.12 1011.22 1011.40 1011.56 1011.44 1010.62 1010.15 1009.45 1009.10 1009.55 1009.41 1008.72 1008.94 1009.31 1009.44 1009.48 1009.58 1010.05 1010.19 1010.00 1008.58 1005.09 1003.16 1001.14 1001.13 1000.48 999.55 1000.04 1000.41 1000.51 1000.78
1017.04 1016.29 1015.20 1015.22 1016.24 1017.15 1016.15 1014.38 1013.28 1012.48 1012.08 1012.32 1011.40 1011.37 1011.03 1011.47 1011.30 1011.34 1010.40 1009.44 1009.64 1009.75 1009.08 1010.14 1010.46 1009.02 1010.02 1009.16 1009.08 1009.60 1009.58 1009.25 1008.98 1008.16 1006.30 1004.61 1002.00 1000.83 999.92 999.28 999.75 999.57 999.74 1000.14 1000.26
1016.42 1016.10 1015.04 1015.07 1016.03 1015.50 1014.37 1013.65 1012.88 1012.30 1012.39 1011.95 1011.56 1010.86 1011.02 1010.94 1010.47 1010.51 1010.13 1009.24 1008.58 1009.10 1009.57 1010.20 1010.79 1010.93 1009.95 1008.59 1007.88 1007.68 1007.38 1007.49 1007.62 1006.92 1006.01 1004.68 1002.58 998.75 999.74 999.53 999.42 998.81 999.35 999.96 1000.18
1016.45 1015.31 1015.17 1014.65 1014.57 1014.18 1013.92 1013.17 1012.95 1012.41 1012.53 1011.73 1011.72 1011.02 1011.07 1010.86 1010.23 1009.45 1009.16 1008.31 1008.43 1009.40 1009.34 1010.29 1010.51 1010.47 1009.90 1008.98 1007.74 1006.96 1006.32 1006.54 1006.16 1006.54 1005.83 1004.87 1002.41 999.52 999.98 999.46 999.31 999.70 999.76 999.43 999.76
1017.07 1015.84 1015.20 1014.50 1013.55 1013.80 1013.19 1012.82 1012.17 1011.61 1011.67 1011.87 1011.21 1011.38 1011.02 1010.35 1010.25 1009.18 1008.59 1008.43 1008.47 1008.65 1008.92 1009.37 1009.72 1009.15 1008.43 1007.17 1006.10 1006.78 1006.48 1005.59 1005.74 1005.83 1004.58 1003.72 1001.60 1000.50 998.89 998.66 998.24 998.86 998.89 998.40 998.53
1017.24 1016.06 1015.32 1014.52 1013.61 1013.37 1013.09 1012.92 1012.27 1011.89 1012.00 1011.86 1010.77 1010.91 1010.88 1010.35 1009.72 1009.25 1009.02 1008.51 1008.38 1008.29 1009.03 1009.12 1008.12 1008.09 1007.01 1006.50 1005.62 1004.59 1005.14 1004.03 1004.50 1003.89 1004.05 1001.92 1001.82 1000.25 997.12 997.98 997.47 997.77 997.21 997.53 997.67
1017.33 1016.91 1016.25 1015.46 1014.71 1014.44 1013.72 1013.08 1012.62 1012.74 1012.99 1012.19 1012.45 1012.75 1012.20 1011.53 1010.87 1010.03 1009.97 1009.53 1007.82 1007.12 1007.99 1007.74 1006.40 1006.75 1005.79 1005.76 1005.49 1005.00 1004.24 1003.70 1002.93 1002.54 1001.61 1001.34 1000.32 998.11 997.32 997.12 996.38 995.66 996.11 997.22 997.26
1017.31 1017.10 1017.22 1015.96 1015.82 1015.59 1014.40 1014.00 1013.55 1013.75 1013.62 1014.00 1013.83 1013.55 1012.98 1012.23 1012.03 1011.70 1011.51 1011.03 1010.51 1009.47 1007.63 1006.76 1005.74 1005.52 1003.40 1004.01 1003.91 1003.18 1002.46 1001.23 1000.68 1000.43 999.95 999.09 997.23 996.81 996.64 996.58 995.27 994.93 996.65 996.69 995.99
Wind_Speed
16 17 17 18 18 18 18 17 16 14 13 13 13 11 8 6 5 2 6 8 6 13 8 5 3 3 1 2 2 3 3 4 5 3 3 5 4 2 4 2 2 6 3 3 13
16 17 17 18 18 18 18 18 17 17 15 14 14 12 10 7 3 8 7 11 13 11 6 7 4 5 1 3 2 4 3 7 5 3 2 3 5 7 3 4 4 3 2 6 14
15 16 17 18 18 19 19 18 17 16 16 15 15 14 10 5 3 7 5 10 12 8 3 4 3 5 3 3 4 5 7 5 4 2 4 2 2 6 7 7 9 12 9 12 10
14 15 16 17 18 19 19 19 18 17 16 15 14 13 10 1 6 3 7 9 9 6 1 3 3 4 4 5 7 5 9 8 7 3 1 3 5 5 9 11 7 12 12 16 17
13 14 15 16 17 18 19 20 20 18 17 17 14 11 2 1 11 6 8 7 6 6 5 5 4 4 4 4 3 6 5 7 7 7 6 2 10 7 11 9 10 7 10 17 16
10 12 14 14 16 18 19 19 20 19 18 17 14 6 2 6 1 9 8 5 4 5 6 6 6 6 5 5 4 3 4 8 7 9 6 7 6 5 9 8 15 10 12 13 18
7 8 9 14 16 19 20 21 20 19 18 16 9 4 3 15 6 8 9 5 3 4 3 4 3 4 1 4 2 3 7 9 9 10 8 6 11 15 24 5 10 12 12 11 17
9 9 10 12 14 17 20 22 22 19 17 11 5 3 8 1 4 7 5 2 1 2 2 1 4 2 3 3 4 3 1 5 3 6 4 10 18 13 14 10 16 13 11 11 15
8 9 11 13 15 17 20 25 23 18 7 2 4 3 9 1 3 6 6 5 4 2 2 2 5 6 0 4 4 4 7 9 12 10 7 7 12 11 8 9 13 11 14 13 12
8 9 11 13 16 18 22 25 12 5 2 3 3 3 4 4 2 3 4 8 3 5 2 3 2 3 1 5 11 9 7 7 10 3 4 7 16 18 9 6 11 11 10 12 16
8 9 11 14 16 19 13 6 5 3 1 9 7 6 4 0 2 2 1 3 3 2 7 6 5 12 24 16 9 5 7 7 16 9 7 16 18 20 18 11 13 19 18 15 20
10 9 9 13 16 21 4 4 3 2 9 8 14 9 8 9 5 6 7 7 7 8 5 3 13 18 6 7 13 11 15 14 12 13 10 12 19 18 11 16 16 16 17 19 20
9 10 8 13 13 5 2 2 3 3 3 9 9 7 8 11 9 9 13 5 6 6 11 19 9 16 14 12 9 18 13 20 18 11 6 9 13 13 12 15 13 17 19 18 20
10 9 6 13 2 4 1 3 2 2 3 8 5 3 2 4 5 1 10 9 5 14 8 11 13 13 7 8 14 23 11 11 8 3 15 6 22 9 8 15 13 19 18 21 15
10 8 4 2 3 3 3 3 2 3 8 6 2 3 2 7 2 2 1 1 5 3 6 10 3 8 14 24 10 22 6 9 2 5 6 5 10 5 9 10 12 16 18 19 14
10 10 8 2 1 4 1 4 2 5 10 5 3 2 3 2 1 3 3 4 1 3 6 12 1 4 8 2 6 2 1 0 2 2 15 10 11 5 8 13 7 15 16 16 16
10 9 10 3 3 2 2 2 4 6 6 4 4 4 1 4 3 5 5 5 6 1 5 4 15 9 6 4 2 3 5 5 5 1 15 12 13 21 7 6 12 15 16 18 6
8 8 6 5 5 5 1 5 10 7 9 3 1 5 9 8 7 7 5 4 7 3 3 4 16 12 9 21 11 11 14 8 9 9 19 5 11 8 13 13 12 15 15 7 9
7 2 3 6 5 4 3 5 7 7 7 3 8 6 6 6 8 6 8 7 10 18 11 6 12 1 3 1 10 4 7 14 3 2 3 11 15 10 4 10 10 15 6 8 10
2 3 5 7 11 5 3 16 9 8 0 3 11 8 7 3 2 5 7 5 6 16 20 8 12 8 1 1 2 6 1 2 2 4 9 17 13 18 15 18 17 8 12 10 7
2 4 2 14 8 3 8 9 5 6 4 7 11 10 7 5 5 5 10 8 5 2 8 5 6 19 4 8 9 1 5 6 2 5 16 19 19 4 11 9 9 9 11 10 10
3 4 6 11 4 3 11 6 5 11 5 9 4 9 13 14 15 19 24 22 9 4 2 4 3 4 13 8 7 6 11 14 11 13 6 10 14 27 15 8 7 5 8 7 7
3 3 5 3 9 11 5 7 10 18 16 6 9 11 12 17 13 15 16 23 21 18 6 8 4 5 4 15 6 7 9 8 8 1 14 17 20 23 17 14 5 8 9 7 8
3 3 3 3 5 12 16 18 18 13 20 20 22 11 12 16 17 12 17 12 9 10 11 12 10 13 16 17 8 11 13 7 11 13 23 22 28 31 32 29 27 24 24 27 13
2 4 3 4 9 14 11 6 14 7 9 12 8 26 28 27 26 26 24 26 17 8 9 11 12 19 28 33 32 30 33 32 25 27 25 28 20 27 35 23 26 24 22 12 11
2 2 4 5 6 3 3 9 12 10 7 14 18 8 10 14 19 25 25 20 22 6 21 10 18 18 21 23 29 33 33 33 31 31 25 29 32 38 38 35 35 35 28 16 17
3 2 1 5 3 2 6 7 7 9 6 2 14 14 16 16 14 19 22 19 19 18 16 17 11 17 29 22 24 23 34 35 35 28 26 28 35 36 33 30 32 30 19 17 20
Wind_Direction
23 16 11 8 4 2 360 359 358 358 357 351 349 341 331 322 307 211 236 216 173 161 164 146 199 224 325 266 216 67 52 251 260 259 214 176 155 306 159 151 211 205 168 224 135
19 12 6 3 359 356 354 351 349 347 346 344 342 341 334 324 209 242 250 137 142 155 143 163 191 187 236 228 195 118 155 235 220 290 288 214 175 181 175 214 228 213 46 120 142
10 7 1 358 354 351 348 344 340 338 337 337 336 334 331 324 303 246 133 147 153 161 163 190 192 164 199 170 207 200 213 216 282 324 12 292 256 189 180 239 209 210 182 170 166
2 1 357 353 349 345 341 338 333 329 328 327 327 325 326 226 278 176 154 156 158 158 205 178 199 163 217 218 208 223 239 244 272 245 188 257 296 251 197 225 217 226 188 173 179
351 350 349 346 341 338 335 331 326 323 320 321 321 317 305 240 248 155 151 163 149 149 189 186 179 189 224 235 271 217 252 269 259 257 230 245 253 246 263 258 251 238 157 187 199
338 340 338 335 331 332 328 323 319 315 314 315 315 303 209 241 154 152 154 156 189 173 199 187 204 196 249 243 207 245 257 264 264 252 236 197 257 160 255 227 244 234 222 197 200
319 324 330 325 326 324 320 315 310 305 304 308 298 244 229 235 165 159 154 195 202 188 219 228 177 171 262 282 279 281 311 309 245 239 223 121 287 226 248 221 240 241 234 213 217
309 314 314 307 307 311 311 306 303 302 300 293 246 222 242 72 136 144 173 167 185 192 187 348 93 206 215 276 327 244 202 283 263 158 197 130 265 245 245 192 233 239 238 227 225
299 307 304 301 303 307 307 302 299 293 269 220 142 185 263 82 188 200 155 179 157 128 83 112 119 189 259 132 341 249 238 217 297 190 148 171 247 272 257 193 240 232 235 234 241
286 299 304 304 306 310 312 304 286 321 192 197 257 18 270 242 184 157 171 151 151 126 87 154 160 177 229 131 221 213 224 250 235 207 149 195 245 262 265 277 238 244 235 236 242
273 287 302 309 313 316 336 353 5 4 293 193 188 218 163 203 9 201 214 109 101 146 191 215 152 204 223 206 233 221 258 251 267 260 186 232 240 252 254 252 241 252 255 245 244
268 271 290 305 315 318 326 38 60 253 304 267 256 237 213 167 218 221 133 165 174 211 174 253 220 227 244 205 232 245 257 261 271 260 187 248 244 257 241 247 241 236 244 244 247
263 272 287 302 314 339 349 62 305 1 251 281 221 213 233 163 224 205 151 180 196 208 209 221 218 218 222 239 263 247 251 260 262 293 246 287 270 240 243 243 252 257 250 255 249
253 262 283 307 37 328 356 321 359 15 298 269 235 242 51 117 279 40 189 167 217 225 207 245 235 231 192 216 204 258 218 247 253 254 271 142 291 220 244 242 238 246 252 252 243
242 244 222 77 264 336 275 334 333 87 304 264 222 331 345 163 106 9 34 360 230 221 143 239 221 206 233 236 200 264 222 240 210 235 318 191 277 166 195 240 244 242 245 256 251
240 217 162 188 223 228 100 340 61 45 259 280 136 181 125 341 77 33 67 38 217 293 252 244 335 239 212 148 195 167 138 172 54 81 263 178 205 156 187 213 230 242 255 252 251
268 239 164 203 222 119 79 357 329 205 297 247 224 157 226 198 233 169 161 164 183 261 254 310 229 219 149 189 277 168 86 303 314 2 255 180 221 250 288 255 211 226 238 242 228
292 240 215 201 157 128 24 69 232 202 222 339 200 156 184 168 235 185 166 227 237 192 290 239 286 163 185 205 194 199 199 179 212 249 275 129 248 252 215 236 230 229 230 202 179
330 173 175 223 156 108 111 197 242 187 214 278 332 268 224 227 208 147 205 209 210 186 197 214 263 289 153 142 158 183 174 216 330 84 3 265 271 291 285 268 260 240 243 216 196
293 233 191 172 142 115 161 241 221 208 166 10 266 226 255 270 176 186 194 208 236 187 206 232 265 223 169 165 345 181 228 104 216 202 245 268 270 273 283 270 256 274 227 231 219
246 249 223 139 126 175 208 233 254 217 211 230 246 252 245 265 230 251 223 295 242 125 178 10 292 274 108 194 180 128 259 246 296 199 249 261 271 216 253 248 253 244 235 212 212
218 240 160 151 180 206 229 228 219 247 228 255 262 250 253 264 260 255 256 235 228 132 173 145 199 253 273 278 233 258 235 230 237 254 234 269 262 261 273 280 260 333 273 254 230
254 216 209 210 228 226 222 246 245 258 245 216 238 224 241 248 257 242 248 257 254 249 211 151 210 233 264 291 248 211 198 217 243 241 242 257 261 271 283 280 283 294 273 275 253
294 253 188 238 237 247 252 250 246 226 252 249 252 245 248 241 244 255 247 259 225 221 175 160 195 205 238 243 271 265 272 251 236 249 253 243 260 271 268 265 274 272 251 261 262
235 255 285 231 234 238 237 252 263 283 257 272 235 233 243 253 249 247 246 255 246 201 194 191 236 225 234 242 245 246 254 255 250 244 243 253 245 258 264 275 270 272 265 257 261
275 339 351 309 310 275 216 252 261 285 267 273 269 331 357 303 291 282 289 267 241 237 217 206 242 240 238 229 233 244 251 255 255 254 253 253 262 259 262 261 264 266 267 272 260
276 55 35 277 311 329 258 276 284 311 235 263 330 316 303 302 298 300 290 274 265 295 277 235 222 229 249 229 235 241 233 238 247 246 242 244 239 250 261 260 262 276 286 261 255